Voltar ao catálogo

COSMOS 1275 DEB

AtivoPO
NORAD 12650·DEBRIS·🇷🇺 Russia

Lançado Jun 4, 1981 de Plesetsk Cosmodrome

Loading…

Próximas Passagens (próximas 24 horas)

TLE

AtualizadoSource: Space-Track

Época: Sep 14, 2026, 04:25 UTC

1 12650U 81053E   26257.18443397  .00000271  00000-0  23840-3 0  9992
2 12650  82.9388 164.8136 0063462 295.9967 217.4976 13.81092954263527

Acompanhe COSMOS 1275 DEB em tempo real com AllMySat

Download on the App Store